Effective Sunday, March 17, 2024, the National Weather Service National Data Buoy Center will discontinue its Dial-A-Buoy Interactive Voice Response system. For more information, see Service Change Notice 24-06 (PDF).

Station MGZP4 - 9759394 - Mayaguez, PR Image indicating link to RSS feed of recent meteorological observations for station MGZP4


Conditions at MGZP4 as of
(11:00 am AST)
1500 GMT on 02/26/2024:
     

Click on the graph icon in the table below to see a time series plot of the last five days of that observation.

5-day plot - Wind Direction Wind Direction (WDIR): NE ( 50 deg true )
5-day plot - Wind Speed Wind Speed (WSPD): 7.0 kts
5-day plot - Wind Gust Wind Gust (GST): 15.0 kts
5-day plot - Atmospheric Pressure Atmospheric Pressure (PRES):30.07 in
5-day plot - Pressure Tendency Pressure Tendency (PTDY):+0.04 in ( Rising )
5-day plot - Air Temperature Air Temperature (ATMP): 78.1 °F
5-day plot - Water Temperature Water Temperature (WTMP): 80.6 °F
5-day plot - Wind Speed at 10 Meters Wind Speed at 10 meters (WSPD10M): 7.8 kts
5-day plot - Wind Speed at 20 Meters Wind Speed at 20 meters (WSPD20M): 9.7 kts
5-day plot -  Wind Speed, Wind Gust and Atmospheric Pressure Combined plot of Wind Speed, Gust, and Air Pressure
NOS Water Level Observation Network Water Level
Previous observations
TIME
(AST)
5-day plot - Wind Direction
WDIR
 
5-day plot - Wind Speed
WSPD
kts
5-day plot - Wind Gust
GST
kts
5-day plot - Wave Height
WVHT
ft
5-day plot - Dominant Wave Period
DPD
sec
5-day plot - Average Wave Period
APD
sec
5-day plot - Mean Wave Direction
MWD
 
5-day plot - Atmospheric Pressure
PRES
in
5-day plot - Pressure Tendency
PTDY
in
5-day plot - Air Temperature
ATMP
°F
5-day plot - Water Temperature
WTMP
°F
5-day plot - Dew Point
DEWP
°F
5-day plot - Salinity
SAL
psu
5-day plot - Visibility
VIS
nmi
5-day plot - Tide (above MLLW)
TIDE
ft
2024-02-26 10:54 am NE 5.1 12.0----30.07- 78.4 80.6----
2024-02-26 10:48 am NE 8.9 12.0----30.08- 77.5 80.6----
2024-02-26 10:42 am NE 9.9 15.9----30.08- 77.2 80.6----
2024-02-26 10:36 am NE 9.9 15.0----30.08- 77.2 80.6----
2024-02-26 10:30 am NE 7.0 17.1----30.08- 77.2 80.6----
2024-02-26 10:24 am NE 8.9 15.9----30.07- 77.4 80.6----
2024-02-26 10:18 am NE 8.0 15.9----30.07- 77.7 80.6----
2024-02-26 10:12 am NE 8.9 14.0----30.07- 77.7 80.6----
2024-02-26 10:06 amNNE 5.1 12.0----30.07- 78.3 80.6----
2024-02-26 10:00 am NE 8.9 14.0----30.07+0.04 78.1 80.6----
2024-02-26 09:54 am NE 8.0 15.0----30.07- 77.9 80.6----
2024-02-26 09:48 am NE 8.9 13.0----30.07- 77.5 80.6----
2024-02-26 09:42 am NE 9.9 14.0----30.07- 77.9 80.6----
2024-02-26 09:36 am NE 8.9 14.0----30.07- 77.5 80.6----
2024-02-26 09:30 amNNE 8.0 12.0----30.06- 77.5 80.6----
2024-02-26 09:24 am NE 7.0 11.1----30.06- 77.7 80.6----
2024-02-26 09:18 am NE 7.0 14.0----30.06- 77.7 80.6----
2024-02-26 09:12 am NE 8.9 14.0----30.06- 77.9 80.6----
2024-02-26 09:06 am NE 8.9 13.0----30.06- 77.9 80.6----
2024-02-26 09:00 amNNE 7.0 11.1----30.06+0.04 77.5 80.6----
2024-02-26 08:54 amNNE 5.1 9.9----30.06- 77.4 80.6----
2024-02-26 08:48 amNNE 6.0 11.1----30.05- 77.5 80.6----
2024-02-26 08:42 amNNE 5.1 9.9----30.05- 77.4 80.6----
2024-02-26 08:36 am NE 7.0 11.1----30.05- 77.2 80.6----
2024-02-26 08:30 am NE 7.0 13.0----30.05- 77.2 80.6----
2024-02-26 08:24 am NE 8.0 9.9----30.04- 77.0 80.6----
2024-02-26 08:18 am NE 8.0 12.0----30.04- 77.0 80.6----
2024-02-26 08:12 am NE 6.0 11.1----30.04- 77.7 80.6----
2024-02-26 08:06 am NE 8.0 11.1----30.04- 77.4 80.6----
2024-02-26 08:00 amNNE 6.0 9.9----30.04+0.04 77.0 80.6----
2024-02-26 07:54 am NE 6.0 9.9----30.03- 76.6 80.6----
2024-02-26 07:48 amNNE 5.1 8.9----30.03- 76.5 80.6----
2024-02-26 07:42 amNNE 6.0 8.9----30.03- 75.6 80.6----
2024-02-26 07:36 amNNE 7.0 11.1----30.03- 75.2 80.6----
2024-02-26 07:30 amNNE 4.1 8.0----30.03- 74.5 80.6----
2024-02-26 07:24 am NE 5.1 9.9----30.03- 75.0 80.6----
2024-02-26 07:18 amNNE 6.0 8.0----30.03- 74.1 80.8----
2024-02-26 07:12 amNNE 7.0 8.9----30.03- 73.8 80.8----
2024-02-26 07:06 amNNE 7.0 8.9----30.03- 73.6 80.8----
2024-02-26 07:00 am N 6.0 8.9----30.03+0.04 73.4 80.8----
2024-02-26 06:54 am N 6.0 8.0----30.02- 73.6 80.8----
2024-02-26 06:48 am N 6.0 8.0----30.02- 74.1 80.8----
2024-02-26 06:42 am N 5.1 8.9----30.02- 74.7 80.8----
2024-02-26 06:36 amNNE 7.0 8.9----30.01- 74.8 80.8----
2024-02-26 06:30 amNNE 6.0 8.9----30.01- 74.1 80.6----
2024-02-26 06:24 am N 6.0 8.9----30.01- 73.8 80.8----
2024-02-26 06:18 am N 7.0 8.9----30.01- 73.8 80.8----
2024-02-26 06:12 am N 7.0 8.0----30.01- 73.6 80.8----
2024-02-26 06:06 amNNE 5.1 8.0----30.01- 73.6 80.8----
2024-02-26 06:00 am N 5.1 8.0----30.01+0.02 73.6 80.8----
2024-02-26 05:54 am N 6.0 8.0----30.01- 73.2 80.8----
2024-02-26 05:48 am N 6.0 8.0----30.01- 73.2 80.8----
2024-02-26 05:42 am N 5.1 6.0----30.01- 73.4 80.8----
2024-02-26 05:36 am N 2.9 5.1----30.01- 73.4 80.8----
2024-02-26 05:30 amNNW 4.1 5.1----30.01- 73.8 80.8----
2024-02-26 05:24 amNNW 4.1 4.1----30.01- 73.6 80.8----
2024-02-26 05:18 amNNW 2.9 4.1----30.00- 73.6 80.8----
2024-02-26 05:12 amNNW 1.9 2.9----30.00- 73.8 80.8----
2024-02-26 05:06 amNNW 2.9 2.9----30.00- 73.6 80.8----
2024-02-26 05:00 amNNW 2.9 2.9----30.00+0.00 73.8 80.8----
2024-02-26 04:54 am NW 2.9 4.1----30.00- 73.9 80.8----
2024-02-26 04:48 amNNW 1.9 2.9----30.00- 73.9 80.8----
2024-02-26 04:42 am NW 1.0 1.9----29.99- 74.5 80.8----
2024-02-26 04:36 am N 1.0 2.9----29.99- 75.0 80.8----
2024-02-26 04:30 am- 0.0 1.9----29.99- 75.2 80.8----
2024-02-26 04:24 amNNE 1.0 2.9----29.99- 75.6 80.8----
2024-02-26 04:18 amENE 1.0 4.1----29.99- 76.3 80.8----
2024-02-26 04:12 am E 2.9 5.1----29.99- 76.3 80.8----
2024-02-26 04:06 amENE 5.1 7.0----29.98- 76.1 80.8----
2024-02-26 04:00 amENE 4.1 7.0----29.99-0.03 75.7 80.8----
2024-02-26 03:54 am E 5.1 6.0----29.98- 75.4 80.8----
2024-02-26 03:48 amENE 4.1 7.0----29.99- 75.6 80.8----
2024-02-26 03:42 am E 4.1 6.0----29.99- 75.6 80.8----
2024-02-26 03:36 am E 1.9 5.1----29.99- 75.7 80.8----
2024-02-26 03:30 am E 2.9 6.0----29.99- 75.7 80.8----
2024-02-26 03:24 am E 1.9 5.1----29.99- 75.6 80.8----
2024-02-26 03:18 am E 1.9 4.1----29.99- 75.6 80.8----
2024-02-26 03:12 am E 1.0 4.1----29.99- 75.4 80.8----
2024-02-26 03:06 am NW 1.0 4.1----29.99- 75.4 80.8----
2024-02-26 03:00 am- 0.0 4.1----29.99-0.04 75.4 80.8----
2024-02-26 02:54 am- 0.0 2.9----30.00- 75.2 80.8----
2024-02-26 02:48 amNNE 1.9 6.0----30.00- 75.2 80.8----
2024-02-26 02:42 am N 2.9 7.0----30.00- 75.0 80.8----
2024-02-26 02:36 amNNE 5.1 7.0----30.00- 75.0 80.8----
2024-02-26 02:30 am N 5.1 7.0----30.00- 75.0 80.8----
2024-02-26 02:24 amNNE 5.1 8.0----30.00- 75.4 80.8----
2024-02-26 02:18 am N 4.1 7.0----30.00- 75.0 80.8----
2024-02-26 02:12 am N 4.1 8.0----30.00- 75.0 80.8----
2024-02-26 02:06 amNNE 5.1 8.0----30.00- 75.4 80.8----
2024-02-26 02:00 am N 6.0 8.0----30.01-0.03 75.2 80.8----
2024-02-26 01:54 am N 5.1 7.0----30.01- 75.4 80.8----
2024-02-26 01:48 amNNE 5.1 7.0----30.01- 75.7 81.0----
2024-02-26 01:42 amNNE 2.9 4.1----30.01- 77.0 81.0----
2024-02-26 01:36 am N 1.0 1.9----30.01- 75.9 81.0----
2024-02-26 01:30 am N 1.0 1.9----30.01- 76.1 81.0----
2024-02-26 01:24 amNNE 1.0 1.9----30.02- 76.5 81.0----
2024-02-26 01:18 am- 0.0 4.1----30.02- 76.5 81.0----
2024-02-26 01:12 amNNW 1.0 5.1----30.02- 76.6 81.0----
2024-02-26 01:06 am N 2.9 4.1----30.02- 76.6 81.0----
2024-02-26 01:00 am N 2.9 5.1----30.02-0.01 77.2 81.0----
2024-02-26 12:54 am- 0.0 2.9----30.02- 77.9 81.0----
2024-02-26 12:48 am NE 1.9 4.1----30.02- 78.6 81.0----
2024-02-26 12:42 am E 4.1 11.1----30.02- 80.1 81.0----
2024-02-26 12:36 am E 4.1 8.0----30.02- 80.4 81.0----
2024-02-26 12:30 am NE 5.1 8.0----30.02- 80.2 81.0----
2024-02-26 12:24 amNNE 6.0 9.9----30.02- 80.4 81.0----
2024-02-26 12:18 amNNE 6.0 8.0----30.03- 80.2 81.0----
2024-02-26 12:12 am NE 5.1 8.0----30.03- 79.9 81.0----
2024-02-26 12:06 amNNE 5.1 8.0----30.03- 79.9 81.0----
2024-02-26 12:00 amNNE 5.1 8.0----30.03+0.00 79.9 81.0----
2024-02-25 11:54 pmNNE 4.1 6.0----30.03- 79.9 81.0----
2024-02-25 11:48 pm NE 2.9 8.0----30.03- 80.1 81.0----
2024-02-25 11:42 pm NE 4.1 8.0----30.03- 80.2 80.8----
2024-02-25 11:36 pm E 6.0 8.9----30.03- 80.6 80.8----
2024-02-25 11:30 pmENE 7.0 12.0----30.03- 80.6 81.0----
2024-02-25 11:24 pmENE 6.0 11.1----30.03- 80.6 81.0----
2024-02-25 11:18 pmENE 5.1 12.0----30.03- 80.6 81.0----
2024-02-25 11:12 pm E 7.0 12.0----30.03- 80.6 81.0----
2024-02-25 11:06 pm E 8.9 12.0----30.03- 80.6 81.0----
2024-02-25 11:00 pm E 6.0 12.0----30.03- 80.6 81.0----
2024-02-25 10:54 pmENE 4.1 9.9----30.03- 80.6 81.0----
2024-02-25 10:48 pmENE 5.1 8.0----30.03- 80.2-----
2024-02-25 10:42 pm NE 2.9 8.9----30.03- 79.7-----
2024-02-25 10:36 pmNNE 5.1 9.9----30.03- 79.3-----
2024-02-25 10:30 pmNNE 4.1 7.0----30.03- 79.3 81.0----
2024-02-25 10:24 pm N 4.1 7.0----30.03- 79.0 81.0----
2024-02-25 10:18 pm N 6.0 7.0----30.04- 79.0 81.0----
2024-02-25 10:12 pm N 4.1 7.0----30.04- 79.0 81.0----
2024-02-25 10:06 pm N 4.1 6.0----30.04- 79.2 81.0----
2024-02-25 10:00 pmNNE 2.9 6.0----30.03+0.03 79.5 81.0----
2024-02-25 09:54 pm N 5.1 7.0----30.03- 79.5 81.0----
2024-02-25 09:48 pmNNE 6.0 8.9----30.03- 79.3 81.0----
2024-02-25 09:42 pm N 4.1 6.0----30.03- 78.8 81.0----
2024-02-25 09:36 pmNNE 4.1 7.0----30.03- 78.8 81.0----
2024-02-25 09:30 pmNNE 1.9 6.0----30.03- 78.4 81.0----
2024-02-25 09:24 pm N 4.1 6.0----30.03- 78.4 81.0----
2024-02-25 09:18 pmNNE 1.9 4.1----30.03- 78.4 81.0----
2024-02-25 09:12 pm E 2.9 7.0----30.03- 78.6 81.0----
2024-02-25 09:06 pmENE 2.9 8.9----30.03- 79.2 81.0----
2024-02-25 09:00 pm E 8.9 12.0----30.03+0.03- 81.1----
2024-02-25 08:54 pmENE 5.1 8.9----30.03-- 81.1----
2024-02-25 08:48 pmENE 6.0 9.9----30.03- 79.2 81.1----
2024-02-25 08:42 pm NE 6.0 9.9----30.03- 79.3 81.1----
2024-02-25 08:36 pmENE 7.0 12.0----30.02- 79.9 81.1----
2024-02-25 08:30 pmENE 6.0 11.1----30.02- 79.3 81.0----
2024-02-25 08:24 pmENE 7.0 14.0----30.02- 79.2 81.0----
2024-02-25 08:18 pm E 9.9 15.0----30.02-- 81.1----
2024-02-25 08:12 pm E 8.0 9.9----30.02-- 81.0----
2024-02-25 08:06 pm E 5.1 11.1----30.02-- 81.0----
2024-02-25 08:00 pmENE 8.0 12.0------- 81.1----
2024-02-25 07:54 pm NE 6.0 11.1------- 81.1----
2024-02-25 07:48 pmNNE 4.1 8.0----30.01- 79.0 81.0----
2024-02-25 07:42 pmENE 5.1 9.9----30.01- 79.2 81.1----
2024-02-25 07:36 pm NE 7.0 13.0----30.01- 79.2 81.0----
2024-02-25 07:30 pmENE 8.0 13.0----30.01- 79.5 81.1----
2024-02-25 07:24 pm E 9.9 13.0----30.01- 79.7 81.1----
2024-02-25 07:00 pm E 8.0 15.9----30.01- 80.8 81.1----
2024-02-25 06:54 pm E 9.9 15.9----30.00- 80.8 81.1----
2024-02-25 06:48 pmENE 9.9 15.0----30.01- 80.4 81.1----
2024-02-25 06:42 pm E 9.9 15.0----30.00- 80.4 81.1----
2024-02-25 06:36 pm E 8.0 17.1----30.00- 79.3 81.1----
2024-02-25 06:30 pm E 5.1 7.0----30.00- 78.1 81.1----
2024-02-25 06:24 pm E 5.1 7.0----30.00- 77.9 81.1----
2024-02-25 06:18 pm E 4.1 7.0----30.00- 78.1 81.1----
2024-02-25 06:12 pm E 6.0 8.9----30.00- 77.9 81.1----
2024-02-25 06:06 pmESE 8.0 9.9----30.00- 77.9 81.1----
2024-02-25 06:00 pmENE 8.0 12.0----30.00+0.00 79.7 81.1----
2024-02-25 05:54 pmENE 11.1 15.9----30.00- 79.7 81.1----
2024-02-25 05:48 pmENE 7.0 9.9----30.00-- 81.1----
2024-02-25 05:42 pm E 7.0 12.0----30.00-- 81.1----
2024-02-25 05:36 pmENE 8.9 13.0----30.00-- 81.1----
2024-02-25 05:30 pm-------30.00-- 81.3----
2024-02-25 05:24 pm-------30.00-- 81.3----
2024-02-25 05:18 pm E 7.0 15.0----30.00- 77.7 81.3----
2024-02-25 05:12 pm E 12.0 20.0----30.00- 77.7 81.3----
2024-02-25 05:06 pm E 11.1 21.0----30.00- 77.4 81.3----
2024-02-25 05:00 pm E 13.0 22.9----30.00-0.02- 81.3----
2024-02-25 04:54 pmENE 15.0 24.1----30.00-- 81.3----
2024-02-25 04:48 pmENE 15.0 21.0----30.00- 78.3 81.3----
2024-02-25 04:42 pm E 11.1 19.0----30.00- 78.3 81.3----
2024-02-25 04:36 pm E 13.0 17.1----30.00- 77.7 81.3----
2024-02-25 04:30 pm E 9.9 15.9----30.00- 77.9 81.3----
2024-02-25 04:24 pm E 11.1 15.9----30.00- 77.9 81.3----
2024-02-25 04:18 pm E 8.9 15.9----30.00-- 81.3----
2024-02-25 04:12 pm E 8.9 14.0----30.00-- 81.3----
2024-02-25 04:06 pm E 11.1 15.9----30.00-- 81.3----
2024-02-25 04:00 pm E 11.1 15.9------- 81.3----
2024-02-25 03:54 pm E 9.9 18.1------- 81.3----
2024-02-25 03:48 pm E 13.0 19.0----30.00- 78.4 81.3----
2024-02-25 03:42 pm E 13.0 18.1----30.00- 79.2 81.3----
2024-02-25 03:36 pm E 9.9 15.0----29.99- 79.2 81.3----
2024-02-25 03:30 pm E 11.1 15.9----29.99- 78.8 81.3----
2024-02-25 03:24 pm E 8.0 14.0----30.00- 79.3 81.5----
2024-02-25 03:18 pmENE 8.9 15.9----30.00- 79.2 81.3----
2024-02-25 03:12 pm E 8.9 13.0----30.00- 79.9 81.5----
2024-02-25 03:06 pm E 6.0 8.9----30.00- 80.4 81.5----
2024-02-25 03:00 pm E 5.1 8.0----30.00-0.04 81.1 81.5----
2024-02-25 02:54 pmENE 5.1 6.0----30.00- 81.0 81.5----
2024-02-25 02:48 pm E 6.0 8.9----30.00- 80.8 81.5----
2024-02-25 02:42 pm E 7.0 8.9----30.00- 80.6 81.5----
2024-02-25 02:36 pm E 7.0 9.9----30.01- 80.6 81.5----
2024-02-25 02:30 pmENE 5.1 7.0----30.01-- 81.5----
2024-02-25 02:24 pmENE 7.0 9.9----30.01-- 81.5----
2024-02-25 02:18 pm E 5.1 8.9----30.01- 80.4 81.5----
2024-02-25 02:12 pm E 4.1 8.0----30.01- 79.2 81.5----
2024-02-25 02:06 pm E 8.0 9.9----30.02- 78.1 81.5----
2024-02-25 02:00 pm E 6.0 8.9----30.02-0.04 77.9 81.5----
2024-02-25 01:54 pm E 6.0 11.1----30.02- 78.4 81.3----
2024-02-25 01:48 pm SE 5.1 8.0----30.03- 78.1 81.3----
2024-02-25 01:42 pm E 5.1 6.0----30.03- 78.4 81.3----
2024-02-25 01:36 pm E 4.1 5.1----30.04- 78.6 81.3----
2024-02-25 01:30 pm E 1.9 2.9----30.04- 78.8 81.3----
2024-02-25 01:24 pm- 0.0 4.1----30.04- 78.4 81.3----
2024-02-25 01:18 pm SW 5.1 11.1----30.05- 76.8 81.3----
2024-02-25 01:12 pmWSW 11.1 12.0----30.04- 77.2 81.3----
2024-02-25 01:06 pm SW 8.9 9.9----30.05- 77.0 81.3----
2024-02-25 01:00 pmSSW 8.0 11.1----30.05-0.02 75.9 81.3----
2024-02-25 12:54 pmSSW 8.9 11.1----30.06- 75.9 81.3----
2024-02-25 12:48 pm S 9.9 13.0----30.06- 75.6 81.3----
2024-02-25 12:42 pm S 11.1 12.0----30.06- 77.0 81.3----
2024-02-25 12:36 pmESE 11.1 14.0----30.06- 76.8 81.3----
2024-02-25 12:30 pmSSE 15.9 19.0----30.06- 77.2 81.3----
2024-02-25 12:24 pm SE 11.1 20.0----30.05- 78.4 81.3----
2024-02-25 12:18 pm E 9.9 12.0----30.05-- 81.3----
2024-02-25 12:12 pm NE 4.1 7.0----30.04-- 81.3----
2024-02-25 12:06 pm N 1.9 9.9----30.05-- 81.3----
2024-02-25 12:00 pmNNW 4.1 7.0----30.05-0.02- 81.3----
2024-02-25 11:54 amNNW 6.0 8.9----30.05-- 81.3----
2024-02-25 11:48 amNNE 7.0 8.9----30.05- 84.6 81.3----
2024-02-25 11:42 am W 1.9 9.9----30.05- 86.9 81.3----
2024-02-25 11:36 am NW 2.9 8.0----30.06- 86.0 81.3----
2024-02-25 11:30 amENE 5.1 8.9------ 85.6 81.3----
2024-02-25 11:24 am NE 1.9 8.0------ 86.4 81.3----
2024-02-25 11:18 amENE 2.9 8.0----30.06-- 81.3----
2024-02-25 11:12 am NE 4.1 6.0----30.06-- 81.3----
2024-02-25 11:06 amENE 7.0 12.0----30.06-- 81.3----
2024-02-25 11:00 am NE 6.0 9.9----30.06+0.02- 81.3----
2024-02-25 10:54 am NE 7.0 11.1----30.06-- 81.3----